VE3CGR-6 Weather Reports


time (UTC)temp
C
wind
direction
speed
KPH
gust
KPH
rain 1hr
cm
rain 24hr
cm
rain mn
cm
humidity
%
barometer
mb
20260510132017 8 338 1.6 17.7 0.00 0.38 0.00 58 1013.7
20260510131018 7 293 1.6 22.5 0.00 0.38 0.00 62 1013.7
20260510130018 7 293 3.2 20.9 0.00 0.38 0.00 63 1013.6
20260510125017 7 315 1.6 14.5 0.00 0.38 0.00 67 1013.5
20260510124018 6 270 1.6 20.9 0.00 0.38 0.00 67 1013.3
20260510123017 6 293 1.6 14.5 0.00 0.38 0.00 69 1013.2
20260510122018 6 0 1.6 17.7 0.00 0.38 0.00 69 1013.2
20260510121017 6 338 1.6 16.1 0.00 0.38 0.00 70 1013.0
20260510120017 6 315 1.6 14.5 0.00 0.38 0.00 70 1012.9
20260510115017 5 0.0 9.7 0.00 0.38 0.00 72 1012.7
20260510114017 5 293 1.6 19.3 0.00 0.38 0.00 72 1012.6
20260510113017 5 293 1.6 9.7 0.00 0.38 0.00 73 1012.4
20260510112017 5 0.0 3.2 0.00 0.38 0.00 74 1012.2
20260510111017 4 293 1.6 14.5 0.00 0.38 0.00 75 1012.1
20260510110017 4 0.0 12.9 0.00 0.38 0.00 75 1011.9
20260510105017 3 0.0 11.3 0.00 0.38 0.00 75 1011.6
20260510104017 3 0.0 4.8 0.00 0.38 0.00 76 1011.5
20260510103017 3 0.0 9.7 0.00 0.38 0.00 76 1011.2
20260510102017 3 293 3.2 14.5 0.00 0.38 0.00 76 1010.9
20260510101017 3 0.0 0.0 0.00 0.38 0.00 76 1010.8
20260510100017 3 0.0 4.8 0.00 0.38 0.00 76 1010.6
20260510095017 3 0.0 0.0 0.00 0.38 0.00 76 1010.4
20260510094017 3 0.0 0.0 0.00 0.38 0.00 75 1010.3
20260510093017 4 0.0 0.0 0.00 0.38 0.00 75 1010.2
20260510092017 4 0.0 0.0 0.00 0.38 0.00 75 1010.1
20260510091017 4 0.0 14.5 0.00 0.38 0.00 75 1009.9
20260510090017 4 0.0 9.7 0.00 0.38 0.00 75 1009.8
20260510085017 4 0.0 9.7 0.00 0.38 0.00 75 1009.8
20260510084017 4 0.0 0.0 0.00 0.38 0.00 75 1009.7
20260510083017 4 0.0 0.0 0.00 0.38 0.00 74 1009.5
20260510082017 5 0.0 0.0 0.00 0.38 0.00 74 1009.5
20260510081017 5 293 1.6 14.5 0.00 0.38 0.00 74 1009.5
20260510080017 5 0.0 6.4 0.00 0.38 0.00 74 1009.4
20260510075017 5 0.0 4.8 0.00 0.38 0.00 73 1009.4
20260510074017 5 315 1.6 8.0 0.00 0.38 0.00 72 1009.4
20260510073017 5 0.0 0.0 0.00 0.38 0.00 71 1009.3
20260510072017 6 0.0 0.0 0.00 0.38 0.00 70 1009.3
20260510071017 6 0.0 8.0 0.00 0.38 0.00 69 1009.2
20260510070017 6 338 1.6 20.9 0.00 0.38 0.00 68 1009.1
20260510065017 6 0.0 17.7 0.00 0.38 0.00 67 1009.1
20260510064018 7 338 1.6 20.9 0.00 0.38 0.00 66 1009.0
20260510063017 7 0.0 12.9 0.00 0.38 0.00 65 1008.9
20260510062017 7 0.0 9.7 0.00 0.38 0.00 64 1008.8
20260510061017 7 293 1.6 16.1 0.00 0.38 0.00 64 1008.5
20260510060017 7 0.0 11.3 0.00 0.38 0.00 64 1008.3
20260510055017 7 0.0 0.0 0.00 0.38 0.00 64 1008.3
20260510054017 8 0.0 0.0 0.00 0.38 0.00 64 1008.1
20260510053017 8 0.0 0.0 0.00 0.38 0.00 63 1008.1
20260510052017 8 0.0 0.0 0.00 0.38 0.00 63 1008.0
20260510051017 8 0.0 0.0 0.00 0.38 0.00 64 1008.0
20260510050017 8 0.0 0.0 0.00 0.38 0.00 63 1007.8
20260510045017 8 0.0 0.0 0.00 0.38 0.00 63 1007.6
20260510044017 8 0.0 0.0 0.00 0.38 0.00 64 1007.4
20260510043017 8 0.0 0.0 0.00 0.38 0.00 65 1007.4
20260510042017 8 0.0 0.0 0.00 0.38 0.00 66 1007.3
20260510041017 8 0.0 0.0 0.00 0.38 0.00 66 1007.2
20260510040017 8 0.0 0.0 0.00 0.38 0.38 67 1007.1
20260510035017 8 0.0 0.0 0.00 0.38 0.38 67 1006.9
20260510034017 9 0.0 0.0 0.00 0.38 0.38 67 1006.8
20260510033017 9 0.0 0.0 0.00 0.38 0.38 68 1006.7
20260510032017 9 0.0 0.0 0.00 0.38 0.38 67 1006.6
20260510031017 10 0.0 0.0 0.00 0.38 0.38 66 1006.5
20260510030017 10 0.0 0.0 0.00 0.38 0.38 65 1006.9
20260510025017 10 0.0 14.5 0.00 0.38 0.38 66 1006.8
20260510024017 10 0.0 6.4 0.00 0.38 0.38 69 1006.6
20260510023017 10 0.0 11.3 0.00 0.38 0.38 69 1006.5
20260510022017 10 0.0 6.4 0.00 0.38 0.38 70 1006.7
20260510021017 11 0.0 1.6 0.00 0.38 0.38 73 1006.2
20260510020017 11 0.0 12.9 0.00 0.38 0.38 77 1006.2
20260510015017 11 0.0 4.8 0.00 0.38 0.38 80 1005.9
20260510014017 11 0.0 0.0 0.00 0.38 0.38 83 1005.4
20260510013017 11 0.0 0.0 0.00 0.38 0.38 84 1005.0
20260510012017 12 0.0 0.0 0.00 0.38 0.38 85 1004.7
20260510011017 12 0.0 0.0 0.00 0.38 0.38 84 1004.5
20260510010017 12 0.0 0.0 0.00 0.38 0.38 84 1004.1
20260510005017 12 0.0 0.0 0.00 0.38 0.38 85 1004.0
20260510004017 12 0.0 0.0 0.03 0.38 0.38 85 1003.7
20260510003017 12 0.0 0.0 0.03 0.38 0.38 85 1003.5
20260510002017 12 0.0 0.0 0.03 0.38 0.38 86 1003.6
20260510001017 12 0.0 0.0 0.03 0.38 0.38 87 1003.3
20260510000017 12 0.0 0.0 0.03 0.38 0.38 88 1003.2
20260509235017 12 0.0 0.0 0.03 0.38 0.38 88 1003.1
20260509234017 12 0.0 0.0 0.00 0.36 0.36 88 1003.1
20260509233017 12 0.0 0.0 0.00 0.36 0.36 87 1002.7
20260509232017 13 0.0 0.0 0.00 0.36 0.36 87 1002.5
20260509231017 12 0.0 0.0 0.00 0.36 0.36 86 1002.2
20260509230017 12 293 1.6 14.5 0.00 0.36 0.36 86 1002.2
20260509225017 12 225 1.6 11.3 0.05 0.36 0.36 86 1002.2
20260509224017 12 0.0 11.3 0.23 0.36 0.36 86 1002.1
20260509223017 12 225 1.6 12.9 0.33 0.36 0.36 87 1001.9
20260509222017 12 225 4.8 16.1 0.36 0.36 0.36 87 1001.9
20260509221017 12 225 4.8 32.2 0.36 0.36 0.36 88 1002.0
20260509220017 12 203 1.6 11.3 0.36 0.36 0.36 87 1002.0
20260509215017 12 203 8.0 22.5 0.33 0.33 0.33 84 1002.4
20260509214017 13 225 6.4 29.0 0.13 0.13 0.13 82 1002.3
20260509213017 14 203 6.4 19.3 0.05 0.05 0.05 79 1002.2
20260509212017 15 180 9.7 20.9 0.00 0.00 0.00 74 1002.1
20260509211017 14 180 4.8 19.3 0.00 0.00 0.00 73 1002.2
20260509210017 15 180 9.7 19.3 0.00 0.00 0.00 73 1002.1
20260509205017 15 180 11.3 22.5 0.00 0.00 0.00 72 1001.7
20260509204017 15 180 8.0 22.5 0.00 0.00 0.00 73 1001.5
20260509203017 15 180 11.3 25.7 0.00 0.00 0.00 72 1002.0
20260509202017 15 180 8.0 17.7 0.00 0.00 0.00 71 1002.1
20260509201017 15 180 8.0 19.3 0.00 0.00 0.00 70 1002.2
20260509200017 15 180 9.7 30.6 0.00 0.00 0.00 70 1002.2
20260509195017 15 180 11.3 32.2 0.00 0.00 0.00 70 1002.1
20260509194017 16 180 16.1 29.0 0.00 0.00 0.00 68 1002.2
20260509193017 16 180 12.9 30.6 0.00 0.00 0.00 69 1002.4
20260509192017 16 180 12.9 32.2 0.00 0.00 0.00 68 1002.5
20260509191017 16 180 16.1 32.2 0.00 0.00 0.00 68 1002.5
20260509190017 16 180 16.1 29.0 0.00 0.00 0.00 67 1002.8
20260509185017 17 180 9.7 27.4 0.00 0.00 0.00 65 1002.7
20260509184017 17 180 14.5 33.8 0.00 0.00 0.00 62 1003.0
20260509183017 16 180 9.7 22.5 0.00 0.00 0.00 65 1002.8
20260509182017 16 180 14.5 25.7 0.00 0.00 0.00 65 1002.9
20260509181017 16 180 12.9 25.7 0.00 0.00 0.00 67 1003.2
20260509180017 16 180 9.7 24.1 0.00 0.00 0.00 68 1003.3
20260509175017 16 180 9.7 22.5 0.00 0.00 0.00 69 1003.5
20260509174017 15 180 3.2 20.9 0.00 0.00 0.00 71 1003.6
20260509173017 15 180 6.4 17.7 0.00 0.00 0.00 72 1003.8
20260509172017 15 180 3.2 14.5 0.00 0.00 0.00 72 1004.0
20260509171017 15 158 3.2 12.9 0.00 0.00 0.00 74 1004.4
20260509170017 14 0.0 11.3 0.00 0.00 0.00 75 1004.8
20260509165016 13 0.0 9.7 0.00 0.00 0.00 76 1004.8
20260509164017 13 203 3.2 17.7 0.00 0.00 0.00 76 1005.0
20260509163017 13 0.0 8.0 0.00 0.00 0.00 76 1005.0
20260509162017 13 225 1.6 14.5 0.00 0.00 0.00 77 1005.1
20260509161016 13 225 4.8 22.5 0.00 0.00 0.00 77 1005.2
20260509160017 13 225 6.4 20.9 0.00 0.00 0.00 78 1005.3
20260509155016 12 203 1.6 12.9 0.00 0.00 0.00 81 1005.4
20260509154017 12 203 3.2 20.9 0.00 0.00 0.00 82 1005.6
20260509153017 12 225 4.8 19.3 0.00 0.00 0.00 82 1005.6
20260509152016 12 180 8.0 20.9 0.00 0.00 0.00 82 1005.7
20260509151017 12 225 9.7 25.7 0.00 0.00 0.00 79 1005.8
20260509150016 12 180 6.4 22.5 0.00 0.00 0.00 77 1005.8
20260509145016 13 180 8.0 24.1 0.00 0.00 0.00 76 1005.6
20260509144016 12 158 6.4 25.7 0.00 0.00 0.00 76 1005.7
20260509143016 12 180 3.2 17.7 0.00 0.00 0.00 78 1005.8
20260509142016 12 180 4.8 17.7 0.00 0.00 0.00 77 1006.1
20260509141016 12 180 6.4 16.1 0.00 0.00 0.00 76 1006.3
20260509140017 12 225 3.2 16.1 0.00 0.00 0.00 76 1006.4
20260509135016 11 180 4.8 14.5 0.00 0.00 0.00 76 1006.3
20260509134016 11 203 4.8 19.3 0.00 0.00 0.00 77 1006.2
20260509133016 11 180 8.0 14.5 0.00 0.00 0.00 76 1006.3